Dr. Bill's Marine Weather

Coastal Marine Forecast

       Alabama   Florida   Louisiana   Mississippi

Printer Friendly AL  FL  LA  MS

Data Buoys:   Western Gulf of Mexico    Eastern Gulf of Mexico
**********************************************************************
  Alabama
1200 PM CDT WED JUL 23 2014

ALZ051>064-231800-
SOUTHWEST ALABAMA
  
CITY           SKY/WX    TMP DP  RH WIND       PRES   REMARKS
MOBILE         CLOUDY    82  73  74 SE7       30.08S                  
BROOKLEY FIELD PTSUNNY   84  74  71 SE6       30.08S HX  91           
EVERGREEN      PTSUNNY   86  71  60 CALM      30.07F HX  91           
**********************************************************************
  Florida
100 PM EDT WED JUL 23 2014

FLZ001>010-012>015-112-114-115-231800-
PANHANDLE FLORIDA
  
CITY           SKY/WX    TMP DP  RH WIND       PRES   REMARKS
PENSACOLA      MOSUNNY   84  71  65 SE8       30.06S                  
PENSACOLA NAS  PTSUNNY   85  74  69 S8        30.06S                  
MILTON NAS     PTSUNNY   87  71  58 N5        30.07S                  
CRESTVIEW      PTSUNNY   86  71  60 VRB3      30.08S                  
DUKE FIELD     MOSUNNY   86  74  68 S7        30.07S                  
VALPARAISO     MOSUNNY   86  75  69 S8        30.07S                  
MARY ESTHER    SUNNY     85  71  62 S10       30.06S                  
PANAMA CITY    FAIR      87  73  62 S12       30.07S                  
TYNDALL AFB    MOSUNNY   85  77  75 SW10      30.09S HX  96           
APALACHICOLA   MOSUNNY   88  75  65 S9        30.07F HX  97           

STATION/POSITION SKY/WX   TEMP    WIND        PRES    WAVE   SWELL
                          AIR SEA DIR/SP/G            HT/PER HT/PER
                          (F)     (DEG/KT/KT) (MB)    (FT/S) (FT/S)
30.1N   87.6W              79 83  150/ 12/ 12 1018.3R   1/ 4
29.2N   88.2W              79 85  250/ 14/ 16 1018.6
28.8N   86.0W              82 84  200/  6/  8 1018.8R   1
PANAMA CITY BEAC           82 83  160/  7/  8 1018.5S
CAPE SAN BLAS    NOT AVBL
TOWER C                    82     180/  5/  6 1018.6R
28.5N   84.5W              84 86  210/  4/  6 1018.9R   1/ 9

**********************************************************************
  Louisiana
1200 PM CDT WED JUL 23 2014

LAZ040-048-061>063-065-066-069-231800-
SOUTHEAST LOUISIANA
  
CITY           SKY/WX    TMP DP  RH WIND       PRES   REMARKS
N.O. AUDUBON     N/A     81  72  73 MISG        N/A                   
N.O. INTL ARPT LGT RAIN  77  72  84 CALM      30.06S                  
N.O. LAKEFRONT CLOUDY    79  72  79 S8        30.07S                  
N.O. DOWNTOWN* FAIR      81  70  69 S7        30.07S                  
SLIDELL        CLOUDY    81  70  69 S6        30.06S                  
BATON ROUGE    PTSUNNY   85  73  67 E6        30.06S                  
BOOTHVILLE     RAIN      75  72  90 SE6       30.09S FOG              
BELLE CHASSE   CLOUDY    79  70  74 SE13      30.06S                  
BOGALUSA*        N/A     86  72  63 CALM      30.08S                  
GALLIANO*      NOT AVBL                                               
NEW ROADS*     FAIR      84  71  65 N5        30.06S                  
GONZALES*      FAIR      86  74  66 E3        30.04F                  
HAMMOND*       MOSUNNY   88  70  55 W3        30.07F                  
HOUMA*         PTSUNNY   82  70  65 E5        30.07R                  
PORT FOURCHON* PTSUNNY   81  73  78 NE8       30.09R                  

**********************************************************************
  Mississippi
1200 PM CDT WED JUL 23 2014

MSZ080>082-231800-
COASTAL MISSISSIPPI
  
CITY           SKY/WX    TMP DP  RH WIND       PRES   REMARKS
BILOXI         CLOUDY    82  72  71 W2        30.07R                  
PASCAGOULA     CLOUDY    81  76  84 S3        30.07R                  
GULFPORT       CLOUDY    83  71  67 VRB3      30.07R                  
About Us | Coastal Marine Forecast | Offshore Marine Forecast | Marine Weather Discussion
Gulf Coast Tides | Exxon Mobil Platform 112B | Hourly Weather Observations | Weather Radar
Severe Weather Potential | Sea Surface Temperatures | Solar/Lunar Data | Hurricane Advisories | Home
     
USA Logo Dr. Bill's Marine Weather
Last date changed: February 4, 2005 12:04 PM
www.gulfmarineweather.com/hourlyweatherobservations.shtml
Contact Us